Startpagina
METAR-TAF:

METAR-TAF

Vliegvelden :

Yellowstone Lake, Wyoming, Verenigde Staten

breedte: 44-32-40N, lengte: 110-25-16W, hoogte: 2388 m

Actueel weer

Dit bericht is 25 minuten geleden gemaakt, om 10:56 UTC
Wind 3 kt uit variabele richting
Temperatuur -2°C
Vochtigheid 93%
Druk 1009 hPa

METAR: KP60 201056Z AUTO VRB03KT M02/M03 A2981 RMK AO1 SLP090 T10221033

Tijdstip: 04:21 (11:21 UTC)


TAF: ontbreekt

Waarnemingen en weersverwachtingen van meer dan 4000 vliegvelden (METAR en TAF).

De beschikbare stations zijn de gele en rode punten op de kaart.

Ga met uw muis naar het station om de naam te zien.

Klik dan om waarnemingen en weersverwachtingen te zien.

kaart wijzigen: klik op de groene knoppen met een zwart kruis om in te zoomen, op de groene knop met een streepje om uit te zoomen of op de groene pijlen voor aangrenzende kaarten.


METAR-TAF: